Home > Weather > Kansas City > Past weeks

Flag for USA Weather for the Past 2 Weeks in Kansas City, Missouri, USA

Now
52 °F

Clear.


Feels Like: 52 °F
Forecast: 52 / 82 °F
Wind: No wind

Location: Kansas City Downtown Airport

Current Time: May 6, 2016 at 7:08:46 AM

Latest Report: May 6, 2016 at 5:54 AM


Visibility: 10 mi

Pressure: 30.05 "Hg

Humidity: 83%

Dew Point: 47 °F

Location of Kansas CityLocation

Historic Weather in Kansas City — Graph

°F

Kansas City Temperature Yesterday

Maximum temperature yesterday: 74 °F (at 3:54 PM)
Minimum temperature yesterday: 48 °F (at 4:54 AM)
Average temperature yesterday: 62 °F

High & Low Weather Summary for the Past Weeks

 TemperatureHumidityPressure
High81 °F (Apr 24, 1:54 PM)97% (Apr 27, 2:54 AM)30.14 "Hg (Apr 27, 2:54 AM)
Low43 °F (May 3, 6:54 AM)24% (May 5, 4:54 PM)29.40 "Hg (Apr 27, 4:54 AM)
Average61 °F68%29.88 "Hg
* Reported Apr 21 5:54 AM — May 6 5:54 AM, Kansas City, Weather by CustomWeather, © 2016

Note: Actual official high and low records may vary slightly from our data, if they occured in-between our weather recording intervals... More about our weather records

Advertising

Kansas City Weather History for the Previous 24 Hours

Scroll right to see more
 ConditionsComfort  
Time TempWeatherWind HumidityBarometerVisibility
5:54 AM
Fri, May 6
52 °FClear.No wind83%30.05 "Hg10 mi
4:54 AM52 °FClear.No wind83%30.04 "Hg10 mi
3:54 AM53 °FClear.No wind80%30.04 "Hg10 mi
2:54 AM53 °FClear.No wind80%30.03 "Hg10 mi
1:54 AM54 °FClear.No wind74%30.03 "Hg10 mi
12:54 AM56 °FClear.No wind70%30.04 "Hg10 mi
11:54 PM
Thu, May 5
57 °FClear.No wind64%30.03 "Hg10 mi
10:54 PM61 °FClear.No wind52%30.03 "Hg10 mi
9:54 PM63 °FClear.No wind48%30.02 "Hg10 mi
8:54 PM68 °FSunny.3 mph32%30.01 "Hg10 mi
7:54 PM69 °FSunny.5 mph30%30.00 "Hg10 mi
6:54 PM72 °FSunny.3 mph30%30.00 "Hg10 mi
5:56 PM74 °FSunny.8 mph26%30.02 "Hg2 mi
4:54 PM74 °FSunny.No wind24%30.03 "Hg10 mi
3:54 PM74 °FSunny.7 mph27%30.04 "Hg10 mi
2:54 PM73 °FSunny.7 mph26%30.05 "Hg10 mi
1:54 PM73 °FSunny.10 mph29%30.06 "Hg10 mi
12:54 PM71 °FSunny.6 mph34%30.08 "Hg10 mi
11:54 AM68 °FSunny.5 mph33%30.09 "Hg10 mi
10:54 AM66 °FSunny.3 mph33%30.08 "Hg10 mi
9:54 AM63 °FSunny.No wind50%30.08 "Hg10 mi
8:54 AM58 °FSunny.No wind60%30.07 "Hg10 mi
7:54 AM54 °FSunny.No wind69%30.06 "Hg10 mi
Weather by CustomWeather, © 2016

See weather overviewHow to use our weather pages